NOAA 16 DEB, 42405

Orbit data source: Space-Track

NOAA 16 DEB, 42405 is space debris in SSO originally from a launch on Thu, 21 Sep 2000 UTC launched from the Air Force Western Test Range (AFWTR). Debris objects in space refer to the collection of defunct objects orbiting the Earth. Examples of debris include non-operational satellites, rocket bodies, and fragments generated from explosions, collisions, or faulty payload assembly.

Loading next visibility...
Identifier
42405, 2000-055SZ
Orbit
SSO
Country
Flag of USUS
Related business
Manufacturer
Unknown
Mission
Spacecraft
Bus & Motor
Unknown
Mass
Unknown
Launch date (UTC)
2000-09-21 (25 years ago)
Launch vehicle
Unknown
Launch site
Air Force Western Test Range (AFWTR)
Object type
Payload
Rocket body
Debris
Shape & HBR
Unknown shape, 0.1 m
Radar Cross Section
Small (<0.1 m²)

Expand to show TLE details & history
Last TLE update: 1 day ago

TLE from 1 day ago
0 NOAA 16 DEB
1 42405U 00055SZ  25290.59723886  .00011828  00000-0  30864-2 0  9994
2 42405  99.0359 158.5689 0025238 120.9338 239.4339 14.49433858498621
Epoch: 2025-10-17T14:20Z
TLE epoch observation values (Epoch: 2025-10-17T14:20:01.437Z)
Latitude
-0.00002°
Longitude
-82.77741°
Altitude
739.597 km
Speed
7.48 km/s
True Right ascension
10h 34m 16s
True Declination
0° 00' 00"
Sunlit
Object was in daylight at epoch
Visualization orbit readout
Latitude
Unknown
Longitude
Unknown
Altitude
Unknown
Speed
Unknown
Apparent Right ascension
Unknown
Apparent Declination
Unknown
Sunlit
N/A
Visualization observer readout
Local Sidereal Time
13:20:42
Azimuth
Unknown
Elevation
Unknown
Doppler factor
Unknown
Orbital elements
Apogee altitude
742.56 km
Perigee altitude
706.708 km
Semi-major axis
7,102.771 km
Eccentricity
0.00252
Inclination
99.0359°
RAAN
158.5689°
Arg. of periapsis
120.9338°
True anomaly
239.18528°
Mean anomaly
239.4339°
Eccentric anomaly
239.30955°
Mean motion
3.62578 °/min
Orbital period
99.29 mins
BSTAR
0.0030864
Loading maneuver chart data...
Computing Atmospheric mass density...

Documentation

Showing up to 5 results
|